STARLINK-2753, 48696

Orbit data source: Space-Track

STARLINK-2753, 48696 is a payload satellite owned by SpaceX/Seattle (US) in LEO that was launched on Wed, 26 May 2021 UTC via an FALCON 9 launch vehicle from the Air Force Eastern Test Range (AFETR). Payload-class satellites include a variety of spacecraft equipped with specific instruments for various scientific and technological missions. These include communications satellites like Starlink; space stations such as the ISS; scientific satellites like the Hubble; Earth observation satellites from companies like Planet Labs, Umbra, and HawkEye 360; GPS; miniature CubeSats for education and research; and military/defense satellites.

Loading next visibility...
Identifier
48696, 2021-044BL
Orbit
LEO
Country
Flag of USUS
Related business
Manufacturer
SpaceX/Seattle
Mission
Operational Commercial Communications
Bus & Motor
STARLINK, Unknown motor
Mass
260 kg wet, ~248 kg dry
Launch date (UTC)
2021-05-26 (5 years ago)
Launch vehicle
FALCON 9
Launch site
Air Force Eastern Test Range (AFETR)
Object type
Payload
Rocket body
Debris
Shape & HBR
Box + 1 Pan, 10.1 m
Radar Cross Section
13.562 m², Large (>1 m²)

Expand to show TLE details & history
Last TLE update: 2 days ago

TLE from 2 days ago
0 STARLINK-2753
1 48696U 21044BL  26171.13978315  .00000866  00000-0  39678-4 0  9995
2 48696  53.1623 331.9787 0001236 121.9265 238.1857 15.31702090279876
Epoch: 2026-06-20T03:21Z
TLE epoch observation values (Epoch: 2026-06-20T03:21:17.264Z)
Latitude
0.00001°
Longitude
13.29809°
Altitude
472.081 km
Speed
7.631 km/s
True Right ascension
22h 07m 54s
True Declination
0° 00' 00"
Sunlit
Object was in full shadow at epoch
Visualization orbit readout
Latitude
Unknown
Longitude
Unknown
Altitude
Unknown
Speed
Unknown
Apparent Right ascension
Unknown
Apparent Declination
Unknown
Sunlit
N/A
Visualization observer readout
Local Sidereal Time
21:38:06
Azimuth
Unknown
Elevation
Unknown
Doppler factor
Unknown
Orbital elements
Apogee altitude
471.837 km
Perigee altitude
470.143 km
Semi-major axis
6,849.127 km
Eccentricity
0.00012
Inclination
53.1623°
RAAN
331.9787°
Arg. of periapsis
121.9265°
True anomaly
238.17367°
Mean anomaly
238.1857°
Eccentric anomaly
238.17968°
Mean motion
3.82904 °/min
Orbital period
94.02 mins
BSTAR
0.000039678
Loading maneuver chart data...
Computing Atmospheric mass density...

Documentation

Showing up to 5 results
|